[[{"header":{"parameterUnit":"m.s-1","parameterCategory":1,"la1":30.2991,"la2":30.254,"lo1":-89.0895,"lo2":-89.0444,"dy":0.0017,"dx":0.0017,"nx":28,"ny":28,"refTime":"2024-04-18T21:00:00:Z","depth":0,"parameterNumber":2,"parameterNumberName":"U-component_of_WINDS"},"data":[0,0,0,0,0,0,0,0,0,0,0,0,0,0,0,0,0,0,0,0,0,0,0,0,0,0,0,0,0,0,0,0,0,0,0,0,0,0,0,0,0,0,0,0,0,0,0,0,0,0,0,0,0,0,0,0,0,0,0.5892,0.5894,0,0.6044,0.6046,0.6048,0.6106,0.6105,0.6105,0.6104,0.626,0.6265,0.6269,0,0,0,0,0,0,0,0,0,0,0,0,0,0.5651,0.5655,0.5892,0.5894,0.5896,0.6044,0.6046,0.6048,0.6106,0.6105,0.6105,0.6104,0.6259,0.6264,0.627,0,0,0,0,0,0,0,0,0,0,0,0,0,0.5775,0.5657,0.5892,0.5943,0.5949,0.6044,0.6046,0.6049,0.6106,0.6105,0.6105,0.6104,0.6257,0.6264,0.627,0.6326,0,0,0.6291,0.6294,0,0,0,0,0,0,0,0,0.5768,0.5783,0.5933,0.5939,0.5946,0.6055,0.6018,0.6142,0.6106,0.6046,0.6104,0.6104,0.6193,0.6205,0.6235,0.6333,0.634,0.6292,0.6296,0.6299,0.6301,0,0,0,0,0,0,0,0.5759,0.5777,0.5952,0.5935,0.5943,0.5958,0.5974,0.6042,0.6121,0.6051,0.6056,0.6073,0.6196,0.6228,0.6239,0.6342,0.6292,0.6298,0.6302,0.6305,0.6493,0.6494,0,0,0,0,0,0,0.5742,0.577,0.5948,0.5957,0.5853,0.5962,0.5981,0.6021,0.6121,0.6135,0.6074,0.6075,0.6217,0.6231,0.6245,0.6316,0.6299,0.6305,0.6309,0.6492,0.6493,0.6494,0,0,0,0,0,0,0.5737,0.5757,0.5941,0.5865,0.5889,0.5967,0.6011,0.6024,0.6056,0.6138,0.6152,0.6092,0.6217,0.6235,0.6305,0.6322,0.6309,0.6315,0.6491,0.6493,0.6494,0.6459,0,0,0,0,0,0,0.5729,0.5755,0.5777,0.5865,0.5893,0.6,0.6013,0.6028,0.6068,0.6072,0.6158,0.6172,0.6218,0.6295,0.6312,0.6331,0.632,0.649,0.6492,0.6494,0.6459,0.6459,0.6458,0,0,0,0,0,0.5721,0.5762,0.5778,0.5799,0.5922,0.6,0.6017,0.6068,0.6069,0.6092,0.6144,0.6169,0.6317,0.6301,0.6321,0.6343,0.6489,0.6491,0.6493,0.6459,0.6459,0.6458,0,0,0,0,0,0,0.5674,0.5774,0.5793,0.5864,0.5923,0.601,0.604,0.6067,0.6127,0.6128,0.6189,0.6208,0.6273,0.6315,0.6296,0.6401,0.6405,0.6411,0.6372,0.6372,0.6372,0.6361,0.6326,0,0,0,0,0,0.5672,0.5727,0.5811,0.5865,0.5894,0.5962,0.5998,0.6032,0.6096,0.6122,0.6179,0.624,0.63,0.6339,0.6399,0.6465,0.6484,0.6489,0.6489,0.6489,0.6493,0.6531,0.6534,0.6501,0.6501,0.6501,0,0,0.5668,0.573,0.5761,0.5858,0.5908,0.5963,0.5983,0.6041,0.6082,0.6131,0.62,0.6244,0.6316,0.6384,0.6417,0.6421,0.6507,0.6491,0.649,0.6495,0.6533,0.6536,0.6539,0.6502,0.6502,0.6502,0,0,0.569,0.5742,0.5792,0.5842,0.5917,0.5962,0.5974,0.6057,0.6088,0.6158,0.6195,0.6246,0.6348,0.6398,0.6437,0.6475,0.6501,0.6493,0.6493,0.6529,0.6531,0.6534,0.6547,0.6551,0.6497,0.6497,0.6497,0,0.5676,0.5761,0.5815,0.5871,0.5912,0.5958,0.6009,0.6054,0.6145,0.6172,0.6175,0.6304,0.6356,0.6436,0.6445,0.6475,0.649,0.6484,0.6526,0.653,0.6533,0.6546,0.6551,0.6496,0.6496,0.6496,0.6496,0,0.574,0.5798,0.583,0.5916,0.5961,0.6014,0.6075,0.6114,0.6144,0.6188,0.6259,0.6322,0.6395,0.6417,0.6447,0.6501,0.6501,0.6514,0.6519,0.6533,0.6547,0.6553,0.6494,0.6494,0.6495,0.6495,0,0,0.5737,0.5852,0.5862,0.5902,0.5988,0.6034,0.6088,0.616,0.6191,0.6252,0.6299,0.6384,0.6397,0.6441,0.6477,0.6508,0.6534,0.6518,0.652,0.6518,0.6596,0.6585,0.659,0.6551,0.6552,0.6553,0.659,0,0.577,0.587,0.5919,0.5998,0.6052,0.6096,0.6143,0.6201,0.6243,0.6295,0.6342,0.6401,0.6413,0.644,0.6473,0.6523,0.655,0.6522,0.6595,0.6597,0.6575,0.6598,0.6587,0.6618,0.6595,0.6596,0.6597,0,0.5821,0.5881,0.5965,0.6044,0.6069,0.6111,0.6179,0.6229,0.6294,0.6323,0.6371,0.6406,0.6465,0.6465,0.6546,0.6525,0.6558,0.6588,0.659,0.6599,0.6598,0.6607,0.663,0.6634,0.6606,0.6605,0.6605,0,0.581,0.5912,0.5975,0.6008,0.6101,0.613,0.617,0.6235,0.6274,0.6334,0.636,0.6426,0.6462,0.6512,0.6564,0.656,0.664,0.6645,0.6665,0.6664,0.6681,0.6679,0.6709,0.6702,0.6701,0.6701,0.6701,0,0.5841,0.5891,0.5972,0.601,0.6067,0.6123,0.6177,0.622,0.6278,0.6325,0.6367,0.6411,0.6476,0.6528,0.6569,0.6629,0.6646,0.667,0.668,0.6666,0.6663,0.6689,0.6688,0.6703,0.6702,0.6702,0.6702,0,0.5839,0.5895,0.5966,0.6049,0.6071,0.6109,0.6179,0.6218,0.6262,0.6322,0.6339,0.6408,0.6471,0.6527,0.6611,0.6638,0.67,0.6713,0.6678,0.6683,0.67,0.6697,0.6748,0.6757,0.6743,0.6743,0.6743,0,0.5855,0.5894,0.598,0.6015,0.6055,0.611,0.6151,0.6207,0.6247,0.6324,0.6354,0.642,0.6475,0.6574,0.6631,0.6695,0.671,0.6723,0.672,0.6704,0.671,0.6707,0.671,0.6722,0.6722,0.6722,0.6722,0,0.5877,0.5903,0.596,0.6026,0.6072,0.6127,0.6183,0.6209,0.6276,0.6318,0.6383,0.6426,0.6511,0.6576,0.6646,0.6687,0.6715,0.6722,0.6731,0.6717,0.6695,0.6706,0.6676,0.6721,0.6721,0.6721,0.6721,0.6722,0.5885,0.5921,0.5988,0.6049,0.6097,0.6148,0.6188,0.6237,0.6292,0.6365,0.6395,0.6461,0.6525,0.6621,0.6662,0.6714,0.672,0.6731,0.6734,0.6736,0.6734,0.6686,0.6727,0.6727,0.6727,0.6728,0.6728,0,0.5909,0.5954,0.601,0.6086,0.6134,0.6157,0.6219,0.6258,0.6315,0.6372,0.6426,0.65,0.6563,0.6624,0.669,0.672,0.6734,0.6735,0.6734,0.6742,0.6725,0.6712,0.6722,0.6722,0.6722,0.6722,0.6722,0.6722,0.5928,0.599,0.6023,0.611,0.6154,0.6219,0.6253,0.6299,0.6345,0.6426,0.6478,0.6518,0.6577,0.6647,0.6705,0.6722,0.6744,0.6741,0.6761,0.6744,0.6744,0.6744,0.6731,0.6745,0.6745,0.6774,0.6774,0.6774]},{"header":{"parameterUnit":"m.s-1","parameterCategory":1,"la1":30.2991,"la2":30.254,"lo1":-89.0895,"lo2":-89.0444,"dy":0.0017,"dx":0.0017,"nx":28,"ny":28,"refTime":"2024-04-18T21:00:00:Z","depth":0,"parameterNumber":3,"parameterNumberName":"V-component_of_WINDS"},"data":[0,0,0,0,0,0,0,0,0,0,0,0,0,0,0,0,0,0,0,0,0,0,0,0,0,0,0,0,0,0,0,0,0,0,0,0,0,0,0,0,0,0,0,0,0,0,0,0,0,0,0,0,0,0,0,0,0,0,3.9122,3.9122,0,3.9077,3.9076,3.9076,3.9055,3.9055,3.9055,3.9055,3.9003,3.9001,3.9,0,0,0,0,0,0,0,0,0,0,0,0,0,3.9186,3.9185,3.9122,3.9122,3.9121,3.9077,3.9076,3.9076,3.9055,3.9055,3.9055,3.9056,3.9003,3.9001,3.9,0,0,0,0,0,0,0,0,0,0,0,0,0,3.9151,3.9184,3.9122,3.9106,3.9104,3.9077,3.9076,3.9076,3.9055,3.9055,3.9055,3.9056,3.9004,3.9002,3.8999,3.8984,0,0,3.8993,3.8992,0,0,0,0,0,0,0,0,3.9153,3.9149,3.9109,3.9107,3.9105,3.9072,3.9079,3.9045,3.9055,3.9073,3.9055,3.9056,3.9025,3.9021,3.9012,3.8981,3.8979,3.8992,3.8991,3.899,3.899,0,0,0,0,0,0,0,3.9155,3.915,3.9104,3.9108,3.9106,3.9099,3.9094,3.9073,3.9049,3.9072,3.907,3.9066,3.9024,3.9015,3.9011,3.8978,3.8993,3.8991,3.8989,3.8988,3.8933,3.8933,0,0,0,0,0,0,3.9161,3.9153,3.9105,3.9103,3.913,3.9098,3.9092,3.9082,3.9049,3.9045,3.9066,3.9065,3.9018,3.9014,3.9009,3.8989,3.899,3.8988,3.8987,3.8933,3.8933,3.8933,0,0,0,0,0,0,3.9163,3.9157,3.9107,3.9127,3.912,3.9096,3.9085,3.9081,3.9072,3.9045,3.904,3.9061,3.9018,3.9012,3.8991,3.8987,3.8987,3.8985,3.8934,3.8933,3.8933,3.8949,0,0,0,0,0,0,3.9165,3.9158,3.9153,3.9127,3.9119,3.9092,3.9085,3.908,3.9069,3.9067,3.9039,3.9034,3.9018,3.8994,3.8989,3.8984,3.8983,3.8934,3.8933,3.8933,3.8949,3.895,3.895,0,0,0,0,0,3.9167,3.9158,3.9153,3.9147,3.9113,3.9091,3.9087,3.907,3.9069,3.9063,3.9045,3.9035,3.8989,3.8992,3.8986,3.898,3.8934,3.8934,3.8933,3.8949,3.895,3.895,0,0,0,0,0,0,3.918,3.9154,3.9148,3.9131,3.9114,3.9088,3.908,3.9071,3.9053,3.9052,3.903,3.9024,3.9005,3.899,3.8995,3.8964,3.896,3.8959,3.8974,3.8975,3.8976,3.8979,3.8982,0,0,0,0,0,3.9182,3.9169,3.9145,3.9132,3.9124,3.9104,3.9093,3.9083,3.9063,3.9055,3.9037,3.9017,3.8998,3.8986,3.8967,3.8947,3.894,3.894,3.8941,3.8942,3.894,3.893,3.8929,3.8932,3.8932,3.8932,0,0,3.9184,3.9167,3.916,3.9134,3.912,3.9105,3.9097,3.9082,3.907,3.9052,3.9032,3.9018,3.8994,3.8974,3.8964,3.8961,3.8938,3.8941,3.8942,3.894,3.8929,3.8929,3.8929,3.8932,3.8932,3.8932,0,0,3.918,3.9166,3.9154,3.9141,3.912,3.9107,3.9104,3.908,3.9071,3.9051,3.9038,3.9023,3.899,3.8975,3.8962,3.8954,3.8944,3.8949,3.8952,3.8941,3.8941,3.8941,3.8938,3.8937,3.8947,3.8947,3.8947,0,3.9184,3.9163,3.9148,3.9134,3.9123,3.911,3.9097,3.9083,3.9057,3.9049,3.9047,3.9008,3.899,3.8967,3.8965,3.8956,3.8951,3.8951,3.8943,3.8942,3.8942,3.8939,3.8938,3.8948,3.8948,3.8948,3.8948,0,3.9169,3.9155,3.9147,3.9125,3.9113,3.91,3.9082,3.9071,3.9062,3.9049,3.9029,3.9008,3.8985,3.8979,3.8968,3.8954,3.8953,3.8947,3.8943,3.8943,3.8939,3.8938,3.8949,3.8949,3.8949,3.8949,0,0,3.9171,3.9143,3.914,3.913,3.9108,3.9095,3.9081,3.9061,3.9053,3.9035,3.9022,3.8996,3.8991,3.8977,3.8965,3.8956,3.8952,3.8951,3.895,3.8952,3.8935,3.894,3.8939,3.8945,3.8945,3.8945,3.8937,0,3.9163,3.914,3.9127,3.9108,3.9094,3.9082,3.9069,3.9053,3.9041,3.9026,3.9012,3.8994,3.8989,3.898,3.8971,3.8955,3.8948,3.8955,3.8932,3.8931,3.8938,3.8937,3.8942,3.8935,3.8936,3.8936,3.8936,0,3.9151,3.9137,3.9117,3.9098,3.9091,3.9081,3.9062,3.9049,3.903,3.9022,3.9008,3.8996,3.898,3.8978,3.8954,3.8959,3.8949,3.8939,3.8938,3.8935,3.8933,3.8933,3.8933,3.8932,3.8933,3.8934,3.8934,0,3.9155,3.913,3.9116,3.9108,3.9084,3.9077,3.9066,3.9048,3.9038,3.9021,3.9014,3.8994,3.8984,3.8968,3.8952,3.8951,3.893,3.8926,3.8921,3.8922,3.8916,3.8917,3.8914,3.891,3.891,3.891,3.891,0,3.9148,3.9136,3.9117,3.9108,3.9095,3.908,3.9066,3.9055,3.9039,3.9026,3.9014,3.9002,3.8981,3.8966,3.8952,3.8935,3.893,3.8922,3.8918,3.8923,3.8924,3.8915,3.8915,3.891,3.891,3.891,3.891,0,3.9149,3.9136,3.9119,3.9099,3.9094,3.9085,3.9067,3.9057,3.9045,3.903,3.9025,3.9005,3.8987,3.8969,3.8944,3.8935,3.8918,3.8913,3.8925,3.8923,3.892,3.892,3.8911,3.8909,3.8907,3.8907,3.8907,0,3.9145,3.9136,3.9117,3.9109,3.9099,3.9086,3.9076,3.9061,3.9051,3.903,3.9023,3.9004,3.8989,3.8961,3.8943,3.8924,3.8918,3.8917,3.8915,3.8921,3.8918,3.8919,3.8918,3.8917,3.8917,3.8917,3.8917,0,3.914,3.9134,3.9122,3.9107,3.9096,3.9083,3.9069,3.9063,3.9045,3.9034,3.9017,3.9006,3.8982,3.8964,3.8943,3.893,3.892,3.8918,3.8916,3.892,3.8927,3.8923,3.8926,3.8918,3.8918,3.8918,3.8918,3.8918,3.9138,3.913,3.9116,3.9102,3.9091,3.9079,3.9069,3.9057,3.9044,3.9025,3.9016,3.8999,3.8981,3.8953,3.8941,3.8926,3.8924,3.892,3.892,3.8919,3.892,3.8931,3.8922,3.8922,3.8922,3.8922,3.8922,0,3.9132,3.9123,3.9111,3.9094,3.9083,3.9078,3.9062,3.9053,3.9039,3.9025,3.9011,3.8991,3.8974,3.8956,3.8937,3.8929,3.8924,3.8925,3.8925,3.8922,3.8924,3.8927,3.8929,3.8929,3.8929,3.8929,3.8929,3.8929,3.9128,3.9115,3.9108,3.9089,3.9079,3.9064,3.9056,3.9045,3.9033,3.9013,3.9,3.8989,3.8973,3.8953,3.8937,3.8932,3.8925,3.8927,3.8921,3.8922,3.8922,3.8921,3.8925,3.8926,3.8926,3.8921,3.8921,3.8921]}]]